Waarnemingen

Advertentie
Mijn weer
Gourette, Frankrijk (7775): temperatuur & dauwpunt: 18.08.2019 00:00:00 - 24.08.2019 00:00:00 (CEST)Gourette, Frankrijk (7775): windsnelheid & windstoten: 18.08.2019 00:00:00 - 24.08.2019 00:00:00 (CEST)Gourette, Frankrijk (7775): windrichting: 18.08.2019 00:00:00 - 24.08.2019 00:00:00 (CEST)Gourette, Frankrijk (7775): luchtdruk: 18.08.2019 00:00:00 - 24.08.2019 00:00:00 (CEST)Gourette, Frankrijk (7775): zicht: 18.08.2019 00:00:00 - 24.08.2019 00:00:00 (CEST)Gourette, Frankrijk (7775): neerslag: 18.08.2019 00:00:00 - 24.08.2019 00:00:00 (CEST)
Datum & Tijd tt [°C] td [°C] ff [km/u] ff [kn] fx [km/u] fx [kn] dd ppp [hPa] vv [km] rr [mm]
24.08.2019 00:00:00 22,7 16,9 11 6 14 8 NW 1018,0 - 0,0
23.08.2019 23:00:00 23,4 17,4 10 5 18 10 NNW 1018,1 - 0,0
23.08.2019 22:00:00 23,2 17,6 11 6 20 11 NNW 1018,3 - 0,0
23.08.2019 21:00:00 23,1 18,6 13 7 22 12 N 1018,3 - 0,0
23.08.2019 20:00:00 23,7 18,6 15 8 26 14 N 1018,0 12 0,0
23.08.2019 19:00:00 25,0 19,8 13 7 27 14 N 1017,9 - 0,0
23.08.2019 18:00:00 25,5 19,9 16 9 26 14 NNO 1018,0 - 0,0
23.08.2019 17:00:00 26,5 20,6 18 10 24 13 NNO 1018,1 - 0,0
23.08.2019 16:00:00 27,2 19,3 14 8 25 13 N 1018,2 - 0,0
23.08.2019 15:00:00 26,9 19,5 16 9 31 17 NNO 1018,5 - 0,0
23.08.2019 14:00:00 26,4 19,5 21 12 29 15 NNO 1018,7 - 0,0
23.08.2019 13:00:00 28,4 19,9 22 12 38 21 N 1018,8 - 0,0
23.08.2019 12:00:00 22,2 19,2 25 14 43 23 N 1019,8 - 0,0
23.08.2019 11:00:00 22,5 19,5 22 12 34 18 N 1019,9 10 0,0
23.08.2019 10:00:00 24,2 19,9 16 9 29 15 N 1018,9 - 0,0
23.08.2019 09:00:00 24,6 19,7 8 4 17 9 NW 1018,1 - 0,0
23.08.2019 08:00:00 24,2 18,4 10 5 18 10 NNW 1018,0 - 0,0
23.08.2019 07:00:00 24,2 17,7 11 6 18 10 NNW 1017,8 - 0,0
23.08.2019 06:00:00 23,4 17,4 12 6 19 11 NW 1017,1 - 0,0
23.08.2019 05:00:00 24,4 17,1 5 3 20 11 OZO 1016,9 10 0,0
23.08.2019 04:00:00 23,3 18,2 6 3 13 7 ZW 1017,4 - 0,0
23.08.2019 03:00:00 24,0 18,4 13 7 20 11 WZW 1017,5 - 0,0
23.08.2019 02:00:00 24,6 19,7 12 7 22 12 ZZW 1017,7 - 0,0
23.08.2019 01:00:00 24,2 18,6 17 9 24 13 ZW 1018,0 - 0,0
23.08.2019 00:00:00 23,6 18,5 16 9 21 11 ZZW 1018,3 - 0,0
22.08.2019 23:00:00 24,5 21,6 5 3 13 7 W 1018,2 - 0,0
22.08.2019 22:00:00 24,5 22,0 4 2 16 9 W 1018,6 - 0,0
22.08.2019 21:00:00 25,3 22,0 10 5 23 13 N 1018,1 - 0,0
22.08.2019 20:00:00 26,3 22,4 14 8 20 11 NNO 1017,4 - 0,0
22.08.2019 19:00:00 27,3 21,6 11 6 18 10 NO 1016,8 - 0,0
22.08.2019 18:00:00 28,5 22,3 7 4 20 11 ZZO 1017,0 - 0,0
22.08.2019 17:00:00 26,9 21,4 0 0 12 7 N 1018,0 - 0,0
22.08.2019 16:00:00 26,8 22,6 10 5 22 12 ONO 1017,9 - 0,0
22.08.2019 15:00:00 27,4 23,0 15 8 24 13 NO 1018,1 - 0,0
22.08.2019 14:00:00 27,5 22,9 11 6 20 11 ONO 1018,3 20 0,0
22.08.2019 13:00:00 27,9 22,8 10 6 21 11 ONO 1018,5 - 0,0
22.08.2019 12:00:00 27,6 22,5 15 8 21 11 ONO 1018,3 - 0,0
22.08.2019 11:00:00 28,2 22,4 12 6 24 13 ONO 1018,3 20 0,0
22.08.2019 10:00:00 28,0 22,2 13 7 19 10 NO 1018,0 - 0,0
22.08.2019 09:00:00 26,2 22,9 3 2 6 3 ONO 1017,8 - 0,0
22.08.2019 08:00:00 25,1 22,2 0 0 4 2 N 1017,5 12 0,0
22.08.2019 07:00:00 24,2 20,9 4 2 8 5 WNW 1017,2 - 0,0
22.08.2019 06:00:00 23,7 20,8 5 3 7 4 ZO 1017,0 - 0,0
22.08.2019 05:00:00 23,9 21,0 4 2 10 5 ZZO 1017,0 12 0,0
22.08.2019 04:00:00 23,2 20,5 10 5 13 7 WZW 1017,1 - 0,0
22.08.2019 03:00:00 23,5 21,4 0 0 4 2 N 1017,2 - 0,0
22.08.2019 02:00:00 24,2 22,3 3 2 4 2 ONO 1017,3 - 0,0
22.08.2019 01:00:00 24,3 22,2 3 2 9 5 ZW 1017,7 - 0,0
22.08.2019 00:00:00 24,0 21,9 8 4 9 5 ZW 1017,9 - 0,0
21.08.2019 23:00:00 24,3 22,0 6 3 - - ZW 1017,7 - 0,0
21.08.2019 22:00:00 24,7 22,0 4 2 5 3 ZW 1017,5 - 0,0
21.08.2019 21:00:00 25,4 22,1 0 0 5 3 N 1017,1 - 0,0
21.08.2019 20:00:00 26,1 22,0 2 1 10 5 ZZO 1016,8 - 0,0
21.08.2019 19:00:00 26,9 22,3 6 3 18 10 O 1016,5 - 0,0
21.08.2019 18:00:00 27,6 22,3 13 7 23 12 NO 1016,7 - 0,0
21.08.2019 17:00:00 27,9 22,6 13 7 22 12 ONO 1016,6 - 0,0
21.08.2019 16:00:00 28,5 23,0 12 7 23 13 O 1016,8 - 0,0
21.08.2019 15:00:00 28,5 23,0 14 8 24 13 O 1017,0 - 0,0
21.08.2019 14:00:00 28,1 22,6 14 7 26 14 O 1017,3 - 0,0
21.08.2019 13:00:00 27,8 22,5 15 8 27 15 O 1017,5 - 0,0
21.08.2019 12:00:00 28,1 22,6 16 9 24 13 O 1017,7 - 0,0
21.08.2019 11:00:00 28,3 21,6 11 6 20 11 O 1017,8 - 0,0
21.08.2019 10:00:00 28,7 21,7 8 5 15 8 ONO 1017,6 - 0,0
21.08.2019 09:00:00 26,4 20,3 8 4 15 8 N 1017,6 - 0,0
21.08.2019 08:00:00 24,4 18,8 10 6 14 8 NNW 1017,5 18 0,0
21.08.2019 07:00:00 23,1 18,6 13 7 18 10 NNW 1017,2 - 0,0
21.08.2019 06:00:00 23,9 22,7 5 3 11 6 WNW 1016,8 - 0,0
21.08.2019 05:00:00 23,5 21,9 7 4 10 5 WZW 1016,6 18 0,0
21.08.2019 04:00:00 24,2 22,1 3 1 9 5 W 1016,6 - 0,0
21.08.2019 03:00:00 23,9 21,2 8 4 14 8 ZW 1016,7 - 0,0
21.08.2019 02:00:00 23,0 21,1 14 7 17 9 ZW 1016,7 - 0,0
21.08.2019 01:00:00 23,2 20,7 13 7 17 9 ZW 1017,0 - 0,0
21.08.2019 00:00:00 23,1 18,8 14 7 18 10 ZW 1017,1 - 0,0
20.08.2019 23:00:00 22,9 19,3 13 7 16 9 ZW 1017,1 - 0,0
20.08.2019 22:00:00 23,3 21,0 14 8 17 9 ZZW 1017,0 - 0,0
20.08.2019 21:00:00 24,1 21,4 11 6 20 11 ZW 1017,0 - 0,0
20.08.2019 20:00:00 25,5 22,4 13 7 26 14 Z 1016,7 - 0,0
20.08.2019 19:00:00 26,9 22,5 18 10 36 19 ZZO 1016,2 - 0,0
20.08.2019 18:00:00 27,7 22,4 21 11 35 19 ZZO 1016,1 - 0,0
20.08.2019 17:00:00 28,2 22,2 22 12 36 19 ZZO 1016,4 15 0,0
20.08.2019 16:00:00 28,6 22,1 21 12 36 19 ZZO 1016,5 - 0,0
20.08.2019 15:00:00 29,0 22,2 21 11 38 21 ZZO 1016,6 - 0,0
20.08.2019 14:00:00 29,4 21,9 22 12 37 20 ZZO 1017,0 - 0,0
20.08.2019 13:00:00 28,6 22,4 24 13 38 20 ZZO 1017,2 - 0,0
20.08.2019 12:00:00 28,4 22,4 23 13 37 20 ZZO 1017,3 - 0,0
20.08.2019 11:00:00 28,7 22,4 20 11 34 19 ZZO 1017,1 15 0,0
20.08.2019 10:00:00 28,4 19,9 19 10 32 18 Z 1016,7 - 0,0
20.08.2019 09:00:00 26,2 21,8 23 12 32 17 Z 1016,6 - 0,0
20.08.2019 08:00:00 23,5 19,2 18 10 24 13 ZZW 1016,4 - 0,0
20.08.2019 07:00:00 21,1 15,0 21 11 24 13 ZZW 1016,5 - 0,0
20.08.2019 06:00:00 21,8 15,9 17 9 20 11 ZW 1016,3 - 0,0
20.08.2019 05:00:00 22,1 17,0 18 10 24 13 ZW 1016,4 20 0,0
20.08.2019 04:00:00 22,3 18,7 19 10 23 13 ZW 1016,8 - 0,0
20.08.2019 03:00:00 23,0 18,5 17 9 20 11 ZW 1017,0 - 0,0
20.08.2019 02:00:00 22,6 17,3 19 11 21 11 ZW 1017,3 - 0,0
20.08.2019 01:00:00 22,8 17,7 16 9 18 10 ZW 1017,4 - 0,0
20.08.2019 00:00:00 23,1 19,1 16 8 16 9 ZW 1017,7 - 0,0
19.08.2019 23:00:00 23,6 20,5 11 6 15 8 ZW 1017,5 - 0,0
19.08.2019 22:00:00 23,8 21,1 13 7 15 8 ZW 1017,5 - 0,0
19.08.2019 21:00:00 24,6 21,3 13 7 19 11 ZZW 1017,1 - 0,0
19.08.2019 20:00:00 25,9 21,6 14 8 25 13 Z 1016,8 25 0,0
19.08.2019 19:00:00 26,7 22,3 17 9 29 16 ZZO 1016,6 - 0,0
19.08.2019 18:00:00 27,9 22,4 19 11 30 16 ZZO 1016,5 - 0,0
19.08.2019 17:00:00 28,2 22,0 21 11 31 17 ZZO 1016,7 - 0,0
19.08.2019 16:00:00 28,6 22,4 20 11 39 21 ZZO 1016,9 - 0,0
19.08.2019 15:00:00 28,6 22,1 24 13 41 22 ZZO 1016,9 - 0,0
19.08.2019 14:00:00 28,7 22,0 25 14 36 19 ZZO 1016,9 25 0,0
19.08.2019 13:00:00 28,6 21,6 25 14 39 21 ZZO 1016,8 - 0,0
19.08.2019 12:00:00 28,3 22,1 24 13 39 21 ZZO 1016,8 - 0,0
19.08.2019 11:00:00 28,4 21,7 21 11 38 21 ZZO 1016,5 25 0,0
19.08.2019 10:00:00 27,9 20,7 20 11 31 17 Z 1016,0 - 0,0
19.08.2019 09:00:00 26,2 21,0 22 12 31 17 Z 1016,0 - 0,0
19.08.2019 08:00:00 23,6 19,9 17 9 24 13 ZZW 1015,8 20 0,0
19.08.2019 07:00:00 22,3 19,5 16 9 22 12 ZW 1015,9 - 0,0
19.08.2019 06:00:00 22,0 19,0 18 10 22 12 ZZW 1015,3 - 0,0
19.08.2019 05:00:00 22,1 19,1 16 9 22 12 ZW 1015,5 - 0,0
19.08.2019 04:00:00 22,4 19,0 17 9 23 13 ZW 1015,7 - 0,0
19.08.2019 03:00:00 22,2 19,2 19 10 22 12 ZW 1015,4 - 0,0
19.08.2019 02:00:00 22,1 19,5 17 9 20 11 ZW 1015,7 - 0,0
19.08.2019 01:00:00 22,3 19,8 16 9 19 10 ZW 1016,0 - 0,0
19.08.2019 00:00:00 22,4 20,1 16 8 23 12 ZW 1016,0 - 0,0
18.08.2019 23:00:00 22,7 20,6 16 9 18 10 ZW 1016,0 - 0,0
18.08.2019 22:00:00 23,3 21,0 13 7 21 12 ZZW 1015,9 - 0,0
18.08.2019 21:00:00 23,9 20,6 15 8 19 11 ZZW 1015,3 - 0,0
18.08.2019 20:00:00 25,0 20,3 14 7 22 12 Z 1015,1 20 0,0
18.08.2019 19:00:00 26,5 19,6 16 9 30 16 Z 1015,1 - 0,0
18.08.2019 18:00:00 27,5 19,6 19 10 31 17 ZZO 1015,3 - 0,0
18.08.2019 17:00:00 28,4 19,3 20 11 32 17 ZZO 1015,4 20 0,0
18.08.2019 16:00:00 28,9 19,0 19 11 35 19 ZZO 1015,8 - 0,0
18.08.2019 15:00:00 28,4 19,6 24 13 37 20 ZZO 1015,9 - 0,0
18.08.2019 14:00:00 28,2 21,0 26 14 40 22 ZZO 1016,0 20 0,0
18.08.2019 13:00:00 28,7 21,2 23 13 39 21 ZZO 1016,3 - 0,0
18.08.2019 12:00:00 28,2 21,2 25 14 36 20 ZO 1016,3 - 0,0
18.08.2019 11:00:00 28,7 21,2 16 9 29 15 ZO 1016,3 - 0,0
18.08.2019 10:00:00 28,5 21,5 14 8 22 12 ZO 1016,2 - 0,0
18.08.2019 09:00:00 27,3 21,1 7 4 16 8 Z 1016,0 - 0,0
18.08.2019 08:00:00 24,8 20,7 5 3 10 5 ZW 1016,0 18 0,0
18.08.2019 07:00:00 23,4 20,1 7 4 9 5 ZW 1016,0 - 0,0
18.08.2019 06:00:00 23,3 19,9 4 2 6 4 Z 1015,9 - 0,0
18.08.2019 05:00:00 23,0 19,8 4 2 5 3 ZZW 1015,8 20 0,0
18.08.2019 04:00:00 23,6 19,9 2 1 5 3 ZW 1016,2 - 0,0
18.08.2019 03:00:00 23,6 19,9 2 1 3 1 WNW 1016,3 - 0,0
18.08.2019 02:00:00 23,7 19,4 3 1 7 4 NW 1016,5 - 0,0
18.08.2019 01:00:00 24,2 19,9 5 3 9 5 NW 1016,6 - 0,0
18.08.2019 00:00:00 24,1 19,4 4 2 6 3 WNW 1016,6 - 0,0

tt = temperatuur
td = dauwpunt
ff = windsnelheid
fx = windstoten
dd = windrichting
ppp = luchtdruk
vv = zicht
rr = neerslag

Weerstations in de omgeving